Regional Weather Roundup
Issued by NWS Grand Forks, ND

Home | Current Version | Previous Version | Graphics & Text | Print | Product List | Glossary On
Versions: 1 2 3 4 5 6 7 8 9 10 11 12 13 14 15 16 17 18 19 20 21 22 23 24 25 26 27 28 29 30 31 32 33 34 35 36 37 38 39 40 41 42 43 44 45 46 47 48 49 50
000
ASUS43 KFGF 190631
RWRFGF
PRAIRIE TO PINES  WEATHER ROUNDUP
NATIONAL WEATHER SERVICE EASTERN NORTH DAKOTA/GRAND FORKS ND
100 AM CDT THU APR 19 2018

 **SATELLITE DATA USED TO AUGMENT SKY COVER AT AUTOMATED STATIONS**
 *****  WEATHER ACROSS EASTERN NORTH DAKOTA  *****

CITY           SKY/WX    TMP DP  RH WIND       PRES   REMARKS
GRAND FORKS    FAIR      31  29  92 CALM      30.31R
6HR MIN TEMP:  31; 6HR MAX TEMP:  47;

GRAND FRKS AFB FAIR      30  27  91 CALM      30.30R
DEVILS LAKE    FAIR      33  26  75 SW5       30.30R
6HR MIN TEMP:  32; 6HR MAX TEMP:  47;

FARGO          FAIR      33  30  88 NW3       30.29R
WAHPETON ARPT  FAIR      32  30  93 CALM      30.31R
$$

 ***** WEATHER ACROSS CENTRAL AND WESTERN NORTH DAKOTA  *****

CITY           SKY/WX    TMP DP  RH WIND       PRES   REMARKS
BISMARCK       FAIR      31  28  89 CALM      30.33R
6HR MIN TEMP:  28; 6HR MAX TEMP:  49;

MINOT          MOCLDY    33  31  92 W7        30.33R
6HR MIN TEMP:  34; 6HR MAX TEMP:  46;

JAMESTOWN      FAIR      34  28  79 NW6       30.29R
6HR MIN TEMP:  33; 6HR MAX TEMP:  47;

MINOT AFB      MOCLDY    32  32 100 N9        30.32R WCI  24
GARRISON         N/A     32  30  92 N3        30.32R
WILLISTON      CLOUDY    34  32  92 NE7       30.34S FOG
6HR MIN TEMP:  34; 6HR MAX TEMP:  46;

DICKINSON      FAIR      31  30  96 CALM      30.29R FOG
6HR MIN TEMP:  29; 6HR MAX TEMP:  47;

HETTINGER      FAIR      27  24  89 N3        30.32R
6HR MIN TEMP:  26; 6HR MAX TEMP:  51;

$$

 *****  OTHER AIRPORT OBSERVATIONS IN OUR AREA  *****

CITY           SKY/WX    TMP DP  RH WIND       PRES   REMARKS
WALHALLA       FAIR      32  32 100 CALM      30.30R
GRAFTON AIRPOR FAIR      34  28  80 CALM      30.32R
VALLEY CITY AR FAIR      32  32 100 NW6       30.32R
CANDO          FAIR      32  32 100 NW5       30.32R
CAVALIER APRT    N/A     34  30  86 CALM      30.30R
GWINNER          N/A     36  28  75 NW7       30.30R
SHEYENNE NWR     N/A     32  29  88 N2        29.95S
ROLLA          FAIR      34  34 100 NW9       30.31R
 ***** THE ABOVE OBSERVATIONS ARE NON NWS ARE NOT QUALITY
       CONTROLLED AND MAY MIS-REPORT RAIN FOR SNOW...
$$

  *****  WEATHER ACROSS NORTHERN MINNESOTA  *****

CITY           SKY/WX    TMP DP  RH WIND       PRES   REMARKS
FLAG ISLAND    FAIR      30  16  55 CALM      30.29R
WARROAD        FAIR      28  21  74 SE3       30.30R
ROSEAU         FAIR      34  27  75 CALM      30.30R
HALLOCK        FAIR      32  28  86 CALM      30.31R
THF RVR FALLS  FAIR      34  18  52 CALM      30.30R
6HR MIN TEMP:  33; 6HR MAX TEMP:  50;

BAUDETTE       FAIR      27  23  85 CALM      30.28R
6HR MIN TEMP:  27; 6HR MAX TEMP:  48;

WASKISH        FAIR      25  21  86 CALM      30.29R
CROOKSTON      FAIR      32  28  86 CALM      30.32R
STEPHEN NDAWN    N/A     37  19  48 W1          N/A
GREENBUSH NDAW   N/A     30  27  86 CALM        N/A
$$
  *****  WEATHER ACROSS CENTRAL AND WEST MINNESOTA  *****

CITY           SKY/WX    TMP DP  RH WIND       PRES   REMARKS
FOSSTON        FAIR      28  12  50 CALM      30.30R
BEMIDJI        FAIR      28  18  66 W3        30.29R
6HR MIN TEMP:  28; 6HR MAX TEMP:  46;

PARK RAPIDS    FAIR      32  15  49 N5        30.26R
6HR MIN TEMP:  27; 6HR MAX TEMP:  48;

ELBOW LAKE     FAIR      33  29  85 W3        30.30R
WADENA         FAIR      30  18  59 CALM      30.28R
DETROIT LAKES  FAIR      32  27  80 CALM      30.30R
MOORHEAD       FAIR      34  30  86 CALM      30.31R
FERGUS FALLS   FAIR      36  25  64 NE3       30.29R
MORRIS MN      FAIR      34  30  86 NW6       30.29R
STAPLES        FAIR      27  19  74 CALM      30.28R
$$
  *****  WEATHER ELSEWHERE ACROSS MINNESOTA  *****

CITY           SKY/WX    TMP DP  RH WIND       PRES   REMARKS
DULUTH         FAIR      28  12  51 N8        30.24R WCI  20
6HR MIN TEMP:  26; 6HR MAX TEMP:  38;

INTRNTL FALLS  FAIR      26  18  71 CALM      30.28R
6HR MIN TEMP:  25; 6HR MAX TEMP:  46;

ELY            FAIR      23  18  80 CALM      30.26R
CLOQUET        FAIR      27  10  50 N8        30.25R WCI  18
WHEATON        FAIR      34  30  86 W3        30.33R
BRAINERD       FAIR      31  15  52 CALM      30.26R
6HR MIN TEMP:  29; 6HR MAX TEMP:  48;

HIBBING        FAIR      22  17  81 CALM      30.25R
6HR MIN TEMP:  22; 6HR MAX TEMP:  45;

ALEXANDRIA     FAIR      35  20  54 CALM      30.28R
6HR MIN TEMP:  34; 6HR MAX TEMP:  45;

SAINT CLOUD    FAIR      29  18  63 CALM      30.25R
6HR MIN TEMP:  28; 6HR MAX TEMP:  44;

MINNEAPOLIS    FAIR      34  16  47 N5        30.24R
6HR MIN TEMP:  32; 6HR MAX TEMP:  40;

$$

  *****  WEATHER ACROSS SOUTH DAKOTA  *****

CITY           SKY/WX    TMP DP  RH WIND       PRES   REMARKS
SIOUX FALLS    FAIR      33  26  75 N9        30.27R
6HR MIN TEMP:  32; 6HR MAX TEMP:  35;

BROOKINGS      FAIR      33  28  81 N3        30.29R
WATERTOWN      FAIR      30  28  92 NW5       30.28R
6HR MIN TEMP:  30; 6HR MAX TEMP:  42;

HURON          FAIR      32  28  85 CALM      30.32R
6HR MIN TEMP:  30; 6HR MAX TEMP:  42;

SISSETON         N/A     34  30  85 NW6       30.29R
ABERDEEN       FAIR      29  27  92 W5        30.33R WCI  24
6HR MIN TEMP:  28; 6HR MAX TEMP:  45;

MITCHELL       FAIR      34  30  85 W8        30.32R
PIERRE         FAIR      34  28  79 W3        30.32R
6HR MIN TEMP:  31; 6HR MAX TEMP:  48;

MOBRIDGE       FAIR      29  25  85 N5        30.29S WCI  24
RAPID CITY     FAIR      31  29  92 CALM      30.30R
6HR MIN TEMP:  31; 6HR MAX TEMP:  53;

$$

  *****  SOME WEATHER IN NEARBY STATES *****

CITY           SKY/WX    TMP DP  RH WIND       PRES   REMARKS
GLASGOW MT     FAIR      39  33  79 E16       30.27R
6HR MIN TEMP:  39; 6HR MAX TEMP:  55;

GREAT FALLS MT FAIR      37  24  59 E14       30.14F
6HR MIN TEMP:  37; 6HR MAX TEMP:  51;

CHEYENNE WY    FAIR      34  18  52 SE5       30.27S
6HR MIN TEMP:  33; 6HR MAX TEMP:  50;

SCOTTSBLUFF NE FAIR      36  26  67 CALM      30.29R
6HR MIN TEMP:  34; 6HR MAX TEMP:  55;

OMAHA NE       FAIR      35  30  82 N13       30.27R
6HR MIN TEMP:  35; 6HR MAX TEMP:  40; 6HR PCP: TRACE;

DES MOINES IA  FAIR      32  28  85 NW8       30.22R WCI  25
6HR MIN TEMP:  32; 6HR MAX TEMP:  36;

DAVENPORT IA   CLOUDY    31  29  92 NW14      30.13R WCI  21
6HR MIN TEMP:  31; 6HR MAX TEMP:  32; 6HR PCP:  0.01;

CHICAGO IL     LGT SNOW  32  32 100 N10       29.98R FOG     WCI  24
6HR MIN TEMP:  32; 6HR MAX TEMP:  33;

EAU CLAIRE WI  FAIR      32  16  51 NE3       30.18R
6HR MIN TEMP:  31; 6HR MAX TEMP:  39;

LA CROSSE WI   FAIR      30  28  92 N6        30.16R WCI  24
6HR MIN TEMP:  30; 6HR MAX TEMP:  34; 6HR PCP:  0.07;

$$

  *****  SOME NATIONAL WEATHER *****

CITY           SKY/WX    TMP DP  RH WIND       PRES   REMARKS
LA GUARDIA NY  CLOUDY    47  32  56 NE9       29.74F
6HR MIN TEMP:  47; 6HR MAX TEMP:  53; 6HR PCP: TRACE;

RALEIGH NC     FAIR      69  47  45 SW15      29.71F
6HR MIN TEMP:  68; 6HR MAX TEMP:  75;

ATLANTA GA     FAIR      67  55  65 SW9       29.94S
6HR MIN TEMP:  67; 6HR MAX TEMP:  77;

NEW ORLEANS LA FAIR      67  65  93 SW7       30.07S
6HR MIN TEMP:  67; 6HR MAX TEMP:  77;

OKLAHOMA CITY  FAIR      51  27  39 NE8       30.27R
6HR MIN TEMP:  51; 6HR MAX TEMP:  68;

ALBUQUERQUE NM FAIR      56  11  16 E23G32    30.14S
6HR MIN TEMP:  56; 6HR MAX TEMP:  69;

SALT LAKE CITY MOCLDY    46  35  65 S5        29.96F
6HR MIN TEMP:  43; 6HR MAX TEMP:  59;

LOS ANGELES CA FAIR      55  46  71 W12       30.01R
6HR MIN TEMP:  55; 6HR M



USA.gov is the U.S. government's official web portal to all federal, state and local government web resources and services.